Погода Ивано-Франковск

Поиск расширенной информации на нашем сайте:

Полезная информация:

Новости сайта



14.11.2019
Обновлён Долгосрочный прогноз погоды по России и другим странам хСССР на ноябрь-декабрь 2019 года.
Опубликованы прогностические карты: Предварительный прогноз на декабрь 2019 года, Предварительный прогноз на январь 2020 года, Предварительная схема синоптических процессов на декабрь 2019 г..

11.11.2019
Обновлены Долгосрочный прогноз погоды по России и другим странам хСССР на ноябрь-декабрь 2019 года и Предварительный прогноз на зиму 2019/2020 годов

04.11.2019
Опубликован Долгосрочный прогноз погоды по России и другим странам хСССР на ноябрь 2019 года
Сравнение прогнозируемой аномалии приземной температуры воздуха на ноябрь 2019 года по разным моделям
Предварительный прогноз на зиму 2019/2020 года




Погода Ивано-Франковск - сегодня

Время (UTC), дата Ветер
(°,м/с) 
Видим.   Явления Облачность Т
(°С)
Тd
(°С)
f(%) Тe
(°С)
Pmin
(гПа)
dP
(гПа)
Po
(мм)
O2
(г/м3)
Тmin Tmax R s Состояние
почвы
00 18.11.19 120 (ЮВ) 10 км    10/10 300 м 
[St]
+10.2 +8.6 90 +9  1018.5  -0.5  739  285           
03 18.11.19 110 (В) 12000 м    10/10 240 м 
[St]
+9.7 +8.3 91 +9  1017.8  -0.8  738  286           
06 18.11.19 120 (ЮВ) 10 км    10/10 300 м 
[St]
+9.4 +7.7 89 +8  1018  0.2  738  286  +9.3         
09 18.11.19 130 (ЮВ) 10 км    10/10 450 м 
[Sc]
+9.8 +6.9 82 +8  1017.9  -0.1  738  286           
12 18.11.19 120 (ЮВ) 10 км    4/4 1500 м 
[Sc]
+13 +7.3 68 +12  1016.4  -1.1  737  282           
15 18.11.19 110 (В) 10 км    6/0 средняя 
[Ac trans]
+10 +6.6 79 +10  1017.8  738  286           
18 18.11.19 120 (ЮВ) 2900 м  дымка  8/0 средняя 
[Ac trans]
+7.4 +7 97 +7  1019.9  1.8  740  289    +13.2       
21 18.11.19 110 (В) 5000 м  дымка  8/0 средняя 
[Ac trans]
+7.1 +6.4 95 +8  1021.4  1.4  741  290           
00 19.11.19 тихо ()   3100 м  дымка  8/0 средняя 
[Ac trans]
+7.1 +6.7 97 +7  1022.8  1.3  742  290           
03 19.11.19 040 (СВ) 0100 м  туман  ?/?  
+3.4 +3.4 100 +4  1024.3  742  295           
06 19.11.19 тихо ()   0100 м  туман  ?/?  
+6.4 +6.4 100 +6  1025.3  1.4  743  292  +3.3         
09 19.11.19 020 (С) 0200 м  туман  ?/?  
+6.7 +6.7 100 +8  1026.2  0.9  744  291           
12 19.11.19 070 (В) 7000 м  в посл. час туман  10/10 120 м 
[St]
+8.3 +8.1 99 +8  1025  -1  743  289           
15 19.11.19 тихо ()   0200 м  туман  ?/?  
+8.1 +8.1 100 +8  1024.9  -0.1  743  289           
18 19.11.19 080 (В) 1300 м  в посл. час туман  10/10 120 м 
[St]
+9.2 +8.8 97 +9  1024.7  -0.1  743  288    +9.5       
21 19.11.19 130 (ЮВ) 3800 м  дымка{туман}  10/10 120 м 
[St]
+9.5 +9.1 97 +9  1024.7  0.1  743  288           
00 20.11.19 150 (ЮВ) 0700 м  туман  ?/?  
+9.2 +9.2 100 +9  1024.3  -0.4  743  288           
03 20.11.19 140 (ЮВ) 1500 м  дымка{туман}  10/10 120 м 
[St]
+9.4 +9.2 99 +9  1023.6  -0.7  742  287           
06 20.11.19 060 (СВ) 1800 м  в посл. час дождь{туман}  10/8 180 м средняя 
[Frnb|As op]
+8.8 +8.6 99 +10  1023.3  -0.4  742  288  +8.7    0.1     
09 20.11.19 130 (ЮВ) 7000 м  дымка  10/10 420 м 
[Sc]
+10.7 +10.1 96 +12  1022.7  -0.3  742  286           
12 20.11.19 110 (В) 8000 м  слаб. ливневой дождь  10/10 480 м кучево-дожд. 
[Cb cap]
+11.3 +10.7 96 +12  1021.1  -1.5  741  285      0.0     
15 20.11.19 110 (В) 10 км  {ливн. осадки}  9/9 480 м 
[Sc]
+11.3 +9.7 90 +11  1020.9  -0.2  741  285           
18 20.11.19 100 (В) 10 км  {ливн. осадки}  10/10 480 м 
[Sc]
+10.6 +9.4 92 +10  1021.2  0.2  741  286    +11.8  0.0     
21 20.11.19 110 (В) 10 км    10/10 630 м 
[Sc]
+10.3 +8.3 87 +8  1020.9  -0.3  740  286           
00 21.11.19 120 (ЮВ) 10 км    10/10 420 м 
[Sc]
+9.6 +7.5 87 +7  1020.9  -0.1  740  287           
Время (UTC), дата Ветер
(°,м/с) 
Видим.   Явления Облачность Т
(°С)
Тd
(°С)
f(%) Тe
(°С)
Pmin
(гПа)
dP
(гПа)
Po
(мм)
O2
(г/м3)
Тmin Tmax R s Состояние
почвы

Для получения пояснительной информации подведите курсор к названию столбца.

ПОГОДА Ивано-Франковск - архив

Всё, что Вы хотите узнать о погоде Ивано-Франковск - удобно и подробно!

Выберите нужную дату (начиная с 1 января 2019* года) и нажмите кнопку "Найти".
Будут отображены архивные сводки погоды по пункту Ивано-Франковск, начиная с указанной даты.


Отображать данные в формате CSV (для использования в таблицах Excel)


Внимание! Наш архив погоды предназначен исключительно для личного некоммерческого использования в познавательных целях. Если Вам необходимы официальные справки о состоянии погоды (для производственных, юридических, коммерческих и т.п. целей), обращайтесь в органы Росгидромета.

*Примечание: данная дата относится к архиву по метеостанциям СССР (Россия, СНГ, Балтия).
Архив по метеостанциям Зарубежной Европы и Азии (кроме Китая) хранится 10 дней, по другим регионам земного шара (Китай, Африка, Америка, Австралия, Океания) - 1 день.

Ивано-Франковск - район местоположения метеостанции


Название, широта, долгота, высота метеостанции:
Ивано-Франковск 49°ш. 24.4°д. 280 м над ур. моря [Украина]

Дополнительная информация

В oтличие oт бoльшинства пoгoдных сайтoв мы публикуем пoдрoбную метеoинфoрмацию в детальнoм прoфессиoнальнoм фoрмате.

Характеристики температуры и влажнoсти вoздуха измеряются на высoте 2 м в тени вдали oт зданий и деревьев.
Скoрoсть ветра измеряется на высoте 10 м (на урoвне рoста челoвека скoрoсть ветра ниже в 1.5-2 раза). Если метеoстанция нахoдится в гoрoде или в лесу, тo скoрoсть ветра занижена на 2-4 м/с пo сравнению с oткрытым местoм. Скoрoсть ветра над акватoриями крупных рек и oзёр, а также на вершинах хoлмoв на 2-5 м/с выше, чем в oбычных услoвиях.
Атмoсфернoе давление в разных тoчках местнoсти мoжет значительнo oтличаться oт давления на метеoстанции, в зависимoсти oт услoвий рельефа (при пoдъёме на 10 м давление пoнижается примернo на 1 мм рт.ст.).